Year,Month,Day,Hour,Minute,Value (Times are PST for temperature in C)
2005,09,21,00,00,9.00
2005,09,21,00,01,9.00
2005,09,21,00,02,9.00
2005,09,21,00,03,9.00
2005,09,21,00,04,9.00
2005,09,21,00,05,9.00
2005,09,21,00,06,9.00
2005,09,21,00,07,9.00
2005,09,21,00,08,9.00
2005,09,21,00,09,9.00
2005,09,21,00,10,9.00
2005,09,21,00,11,9.00
2005,09,21,00,12,9.00
2005,09,21,00,13,9.00
2005,09,21,00,14,9.00
2005,09,21,00,15,9.00
2005,09,21,00,16,8.90
2005,09,21,00,17,8.90
2005,09,21,00,18,8.90
2005,09,21,00,19,8.90
2005,09,21,00,20,8.90
2005,09,21,00,21,8.90
2005,09,21,00,22,8.90
2005,09,21,00,23,8.90
2005,09,21,00,24,8.80
2005,09,21,00,25,8.80
2005,09,21,00,26,8.80
2005,09,21,00,27,8.80
2005,09,21,00,28,8.70
2005,09,21,00,29,8.70
2005,09,21,00,30,8.70
2005,09,21,00,31,8.70
2005,09,21,00,32,8.70
2005,09,21,00,33,8.70
2005,09,21,00,34,8.70
2005,09,21,00,35,8.60
2005,09,21,00,36,8.60
2005,09,21,00,37,8.60
2005,09,21,00,38,8.50
2005,09,21,00,39,8.50
2005,09,21,00,40,8.50
2005,09,21,00,41,8.40
2005,09,21,00,42,8.40
2005,09,21,00,43,8.30
2005,09,21,00,44,8.30
2005,09,21,00,45,8.30
2005,09,21,00,46,8.30
2005,09,21,00,47,8.30
2005,09,21,00,48,8.20
2005,09,21,00,49,8.20
2005,09,21,00,50,8.20
2005,09,21,00,51,8.20
2005,09,21,00,52,8.20
2005,09,21,00,53,8.20
2005,09,21,00,54,8.20
2005,09,21,00,55,8.10
2005,09,21,00,56,8.10
2005,09,21,00,57,8.10
2005,09,21,00,58,8.10
2005,09,21,00,59,8.10
2005,09,21,01,00,8.10
2005,09,21,01,01,8.20
2005,09,21,01,02,8.20
2005,09,21,01,03,8.20
2005,09,21,01,04,8.20
2005,09,21,01,05,8.20
2005,09,21,01,06,8.20
2005,09,21,01,07,8.20
2005,09,21,01,08,8.20
2005,09,21,01,09,8.20
2005,09,21,01,10,8.20
2005,09,21,01,11,8.20
2005,09,21,01,12,8.10
2005,09,21,01,13,8.10
2005,09,21,01,14,8.10
2005,09,21,01,15,8.00
2005,09,21,01,16,8.00
2005,09,21,01,17,7.90
2005,09,21,01,18,7.80
2005,09,21,01,19,7.80
2005,09,21,01,20,7.80
2005,09,21,01,21,7.70
2005,09,21,01,22,7.70
2005,09,21,01,23,7.60
2005,09,21,01,24,7.60
2005,09,21,01,25,7.60
2005,09,21,01,26,7.60
2005,09,21,01,27,7.60
2005,09,21,01,28,7.60
2005,09,21,01,29,7.60
2005,09,21,01,30,7.60
2005,09,21,01,31,7.60
2005,09,21,01,32,7.60
2005,09,21,01,33,7.60
2005,09,21,01,34,7.60
2005,09,21,01,35,7.60
2005,09,21,01,36,7.60
2005,09,21,01,37,7.60
2005,09,21,01,38,7.50
2005,09,21,01,39,7.50
2005,09,21,01,40,7.50
2005,09,21,01,41,7.50
2005,09,21,01,42,7.50
2005,09,21,01,43,7.50
2005,09,21,01,44,7.50
2005,09,21,01,45,7.60
2005,09,21,01,46,7.60
2005,09,21,01,47,7.50
2005,09,21,01,48,7.50
2005,09,21,01,49,7.50
2005,09,21,01,50,7.50
2005,09,21,01,51,7.40
2005,09,21,01,52,7.40
2005,09,21,01,53,7.40
2005,09,21,01,54,7.40
2005,09,21,01,55,7.50
2005,09,21,01,56,7.50
2005,09,21,01,57,7.50
2005,09,21,01,58,7.60
2005,09,21,01,59,7.50
2005,09,21,02,00,7.50
2005,09,21,02,01,7.50
2005,09,21,02,02,7.50
2005,09,21,02,03,7.40
2005,09,21,02,04,7.30
2005,09,21,02,05,7.30
2005,09,21,02,06,7.30
2005,09,21,02,07,7.20
2005,09,21,02,08,7.20
2005,09,21,02,09,7.20
2005,09,21,02,10,7.20
2005,09,21,02,11,7.10
2005,09,21,02,12,7.10
2005,09,21,02,13,7.10
2005,09,21,02,14,7.10
2005,09,21,02,15,7.10
2005,09,21,02,16,7.10
2005,09,21,02,17,7.00
2005,09,21,02,18,7.00
2005,09,21,02,19,6.90
2005,09,21,02,20,6.90
2005,09,21,02,21,7.00
2005,09,21,02,22,7.00
2005,09,21,02,23,7.10
2005,09,21,02,24,7.10
2005,09,21,02,25,7.10
2005,09,21,02,26,7.10
2005,09,21,02,27,7.10
2005,09,21,02,28,7.10
2005,09,21,02,29,7.10
2005,09,21,02,30,7.20
2005,09,21,02,31,7.20
2005,09,21,02,32,7.20
2005,09,21,02,33,7.20
2005,09,21,02,34,7.10
2005,09,21,02,35,7.10
2005,09,21,02,36,7.10
2005,09,21,02,37,7.10
2005,09,21,02,38,7.10
2005,09,21,02,39,7.10
2005,09,21,02,40,7.10
2005,09,21,02,41,7.10
2005,09,21,02,42,7.10
2005,09,21,02,43,7.10
2005,09,21,02,44,7.10
2005,09,21,02,45,7.10
2005,09,21,02,46,7.10
2005,09,21,02,47,7.10
2005,09,21,02,48,7.10
2005,09,21,02,49,7.20
2005,09,21,02,50,7.30
2005,09,21,02,51,7.30
2005,09,21,02,52,7.30
2005,09,21,02,53,7.30
2005,09,21,02,54,7.30
2005,09,21,02,55,7.40
2005,09,21,02,56,7.40
2005,09,21,02,57,7.40
2005,09,21,02,58,7.40
2005,09,21,02,59,7.30
2005,09,21,03,00,7.30
2005,09,21,03,01,7.30
2005,09,21,03,02,7.30
2005,09,21,03,03,7.30
2005,09,21,03,04,7.30
2005,09,21,03,05,7.30
2005,09,21,03,06,7.30
2005,09,21,03,07,7.30
2005,09,21,03,08,7.40
2005,09,21,03,09,7.40
2005,09,21,03,10,7.50
2005,09,21,03,11,7.50
2005,09,21,03,12,7.50
2005,09,21,03,13,7.50
2005,09,21,03,14,7.50
2005,09,21,03,15,7.50
2005,09,21,03,16,7.50
2005,09,21,03,17,7.40
2005,09,21,03,18,7.40
2005,09,21,03,19,7.30
2005,09,21,03,20,7.30
2005,09,21,03,21,7.30
2005,09,21,03,22,7.20
2005,09,21,03,23,7.20
2005,09,21,03,24,7.20
2005,09,21,03,25,7.10
2005,09,21,03,26,7.10
2005,09,21,03,27,7.10
2005,09,21,03,28,7.10
2005,09,21,03,29,7.10
2005,09,21,03,30,7.00
2005,09,21,03,31,6.90
2005,09,21,03,32,6.80
2005,09,21,03,33,6.80
2005,09,21,03,34,6.80
2005,09,21,03,35,6.80
2005,09,21,03,36,6.80
2005,09,21,03,37,6.80
2005,09,21,03,38,6.80
2005,09,21,03,39,6.80
2005,09,21,03,40,6.80
2005,09,21,03,41,6.70
2005,09,21,03,42,6.60
2005,09,21,03,43,6.60
2005,09,21,03,44,6.60
2005,09,21,03,45,6.60
2005,09,21,03,46,6.50
2005,09,21,03,47,6.40
2005,09,21,03,48,6.40
2005,09,21,03,49,6.60
2005,09,21,03,50,6.60
2005,09,21,03,51,6.60
2005,09,21,03,52,6.60
2005,09,21,03,53,6.60
2005,09,21,03,54,6.60
2005,09,21,03,55,6.60
2005,09,21,03,56,6.60
2005,09,21,03,57,6.70
2005,09,21,03,58,6.70
2005,09,21,03,59,6.70
2005,09,21,04,00,6.80
2005,09,21,04,01,6.80
2005,09,21,04,02,6.80
2005,09,21,04,03,6.80
2005,09,21,04,04,6.90
2005,09,21,04,05,7.00
2005,09,21,04,06,7.00
2005,09,21,04,07,7.00
2005,09,21,04,08,7.00
2005,09,21,04,09,7.10
2005,09,21,04,10,7.10
2005,09,21,04,11,7.20
2005,09,21,04,12,7.10
2005,09,21,04,13,7.10
2005,09,21,04,14,7.10
2005,09,21,04,15,7.00
2005,09,21,04,16,7.10
2005,09,21,04,17,7.10
2005,09,21,04,18,7.10
2005,09,21,04,19,7.10
2005,09,21,04,20,7.00
2005,09,21,04,21,7.00
2005,09,21,04,22,6.90
2005,09,21,04,23,6.80
2005,09,21,04,24,6.80
2005,09,21,04,25,6.80
2005,09,21,04,26,6.80
2005,09,21,04,27,6.70
2005,09,21,04,28,6.70
2005,09,21,04,29,6.70
2005,09,21,04,30,6.70
2005,09,21,04,31,6.60
2005,09,21,04,32,6.60
2005,09,21,04,33,6.60
2005,09,21,04,34,6.60
2005,09,21,04,35,6.60
2005,09,21,04,36,6.60
2005,09,21,04,37,6.60
2005,09,21,04,38,6.60
2005,09,21,04,39,6.60
2005,09,21,04,40,6.60
2005,09,21,04,41,6.60
2005,09,21,04,42,6.60
2005,09,21,04,43,6.60
2005,09,21,04,44,6.50
2005,09,21,04,45,6.40
2005,09,21,04,46,6.40
2005,09,21,04,47,6.40
2005,09,21,04,48,6.40
2005,09,21,04,49,6.40
2005,09,21,04,50,6.40
2005,09,21,04,51,6.30
2005,09,21,04,52,6.30
2005,09,21,04,53,6.30
2005,09,21,04,54,6.30
2005,09,21,04,55,6.30
2005,09,21,04,56,6.30
2005,09,21,04,57,6.30
2005,09,21,04,58,6.20
2005,09,21,04,59,6.20
2005,09,21,05,00,6.20
2005,09,21,05,01,6.10
2005,09,21,05,02,6.10
2005,09,21,05,03,6.10
2005,09,21,05,04,6.00
2005,09,21,05,05,6.00
2005,09,21,05,06,6.00
2005,09,21,05,07,6.00
2005,09,21,05,08,6.00
2005,09,21,05,09,6.00
2005,09,21,05,10,6.00
2005,09,21,05,11,6.10
2005,09,21,05,12,6.20
2005,09,21,05,13,6.20
2005,09,21,05,14,6.30
2005,09,21,05,15,6.30
2005,09,21,05,16,6.30
2005,09,21,05,17,6.40
2005,09,21,05,18,6.40
2005,09,21,05,19,6.40
2005,09,21,05,20,6.40
2005,09,21,05,21,6.40
2005,09,21,05,22,6.40
2005,09,21,05,23,6.40
2005,09,21,05,24,6.40
2005,09,21,05,25,6.40
2005,09,21,05,26,6.40
2005,09,21,05,27,6.40
2005,09,21,05,28,6.40
2005,09,21,05,29,6.40
2005,09,21,05,30,6.40
2005,09,21,05,31,6.40
2005,09,21,05,32,6.50
2005,09,21,05,33,6.60
2005,09,21,05,34,6.60
2005,09,21,05,35,6.60
2005,09,21,05,36,6.60
2005,09,21,05,37,6.60
2005,09,21,05,38,6.60
2005,09,21,05,39,6.60
2005,09,21,05,40,6.60
2005,09,21,05,41,6.70
2005,09,21,05,42,6.70
2005,09,21,05,43,6.80
2005,09,21,05,44,6.80
2005,09,21,05,45,6.80
2005,09,21,05,46,6.80
2005,09,21,05,47,6.90
2005,09,21,05,48,6.90
2005,09,21,05,49,7.00
2005,09,21,05,50,7.00
2005,09,21,05,51,7.10
2005,09,21,05,52,7.10
2005,09,21,05,53,7.20
2005,09,21,05,54,7.30
2005,09,21,05,55,7.30
2005,09,21,05,56,7.30
2005,09,21,05,57,7.30
2005,09,21,05,58,7.40
2005,09,21,05,59,7.40
2005,09,21,06,00,7.40
2005,09,21,06,01,7.40
2005,09,21,06,02,7.40
2005,09,21,06,03,7.40
2005,09,21,06,04,7.40
2005,09,21,06,05,7.30
2005,09,21,06,06,7.30
2005,09,21,06,07,7.20
2005,09,21,06,08,7.20
2005,09,21,06,09,7.10
2005,09,21,06,10,7.00
2005,09,21,06,11,7.00
2005,09,21,06,12,6.90
2005,09,21,06,13,6.90
2005,09,21,06,14,6.90
2005,09,21,06,15,6.90
2005,09,21,06,16,7.00
2005,09,21,06,17,7.00
2005,09,21,06,18,6.90
2005,09,21,06,19,6.90
2005,09,21,06,20,6.90
2005,09,21,06,21,6.80
2005,09,21,06,22,6.70
2005,09,21,06,23,6.60
2005,09,21,06,24,6.60
2005,09,21,06,25,6.60
2005,09,21,06,26,6.50
2005,09,21,06,27,6.40
2005,09,21,06,28,6.40
2005,09,21,06,29,6.40
2005,09,21,06,30,6.40
2005,09,21,06,31,6.40
2005,09,21,06,32,6.40
2005,09,21,06,33,6.40
2005,09,21,06,34,6.40
2005,09,21,06,35,6.60
2005,09,21,06,36,6.60
2005,09,21,06,37,6.60
2005,09,21,06,38,6.60
2005,09,21,06,39,6.60
2005,09,21,06,40,6.60
2005,09,21,06,41,6.60
2005,09,21,06,42,6.60
2005,09,21,06,43,6.60
2005,09,21,06,44,6.60
2005,09,21,06,45,6.50
2005,09,21,06,46,6.40
2005,09,21,06,47,6.20
2005,09,21,06,48,6.20
2005,09,21,06,49,6.20
2005,09,21,06,50,6.20
2005,09,21,06,51,6.20
2005,09,21,06,52,6.20
2005,09,21,06,53,6.20
2005,09,21,06,54,6.20
2005,09,21,06,55,6.20
2005,09,21,06,56,6.20
2005,09,21,06,57,6.20
2005,09,21,06,58,6.30
2005,09,21,06,59,6.30
2005,09,21,07,00,6.30
2005,09,21,07,01,6.30
2005,09,21,07,02,6.30
2005,09,21,07,03,6.30
2005,09,21,07,04,6.30
2005,09,21,07,05,6.30
2005,09,21,07,06,6.30
2005,09,21,07,07,6.30
2005,09,21,07,08,6.30
2005,09,21,07,09,6.30
2005,09,21,07,10,6.30
2005,09,21,07,11,6.40
2005,09,21,07,12,6.40
2005,09,21,07,13,6.40
2005,09,21,07,14,6.40
2005,09,21,07,15,6.40
2005,09,21,07,16,6.40
2005,09,21,07,17,6.40
2005,09,21,07,18,6.40
2005,09,21,07,19,6.40
2005,09,21,07,20,6.40
2005,09,21,07,21,6.40
2005,09,21,07,22,6.40
2005,09,21,07,23,6.40
2005,09,21,07,24,6.40
2005,09,21,07,25,6.50
2005,09,21,07,26,6.60
2005,09,21,07,27,6.60
2005,09,21,07,28,6.60
2005,09,21,07,29,6.60
2005,09,21,07,30,6.60
2005,09,21,07,31,6.60
2005,09,21,07,32,6.60
2005,09,21,07,33,6.70
2005,09,21,07,34,6.70
2005,09,21,07,35,6.80
2005,09,21,07,36,6.80
2005,09,21,07,37,6.80
2005,09,21,07,38,6.80
2005,09,21,07,39,6.90
2005,09,21,07,40,6.90
2005,09,21,07,41,7.00
2005,09,21,07,42,7.00
2005,09,21,07,43,7.00
2005,09,21,07,44,7.00
2005,09,21,07,45,7.00
2005,09,21,07,46,7.10
2005,09,21,07,47,7.10
2005,09,21,07,48,7.20
2005,09,21,07,49,7.20
2005,09,21,07,50,7.20
2005,09,21,07,51,7.30
2005,09,21,07,52,7.30
2005,09,21,07,53,7.30
2005,09,21,07,54,7.40
2005,09,21,07,55,7.40
2005,09,21,07,56,7.50
2005,09,21,07,57,7.50
2005,09,21,07,58,7.50
2005,09,21,07,59,7.60
2005,09,21,08,00,7.60
2005,09,21,08,01,7.70
2005,09,21,08,02,7.80
2005,09,21,08,03,7.90
2005,09,21,08,04,7.90
2005,09,21,08,05,8.00
2005,09,21,08,06,8.10
2005,09,21,08,07,8.20
2005,09,21,08,08,8.40
2005,09,21,08,09,8.50
2005,09,21,08,10,8.60
2005,09,21,08,11,8.70
2005,09,21,08,12,8.90
2005,09,21,08,13,9.00
2005,09,21,08,14,9.10
2005,09,21,08,15,9.30
2005,09,21,08,16,9.40
2005,09,21,08,17,9.60
2005,09,21,08,18,9.70
2005,09,21,08,19,9.80
2005,09,21,08,20,9.90
2005,09,21,08,21,10.10
2005,09,21,08,22,10.20
2005,09,21,08,23,10.30
2005,09,21,08,24,10.40
2005,09,21,08,25,10.40
2005,09,21,08,26,10.50
2005,09,21,08,27,10.60
2005,09,21,08,28,10.70
2005,09,21,08,29,10.80
2005,09,21,08,30,10.80
2005,09,21,08,31,10.90
2005,09,21,08,32,10.90
2005,09,21,08,33,11.00
2005,09,21,08,34,11.10
2005,09,21,08,35,11.10
2005,09,21,08,36,11.10
2005,09,21,08,37,11.10
2005,09,21,08,38,11.20
2005,09,21,08,39,11.20
2005,09,21,08,40,11.30
2005,09,21,08,41,11.30
2005,09,21,08,42,11.40
2005,09,21,08,43,11.40
2005,09,21,08,44,11.40
2005,09,21,08,45,11.50
2005,09,21,08,46,11.60
2005,09,21,08,47,11.70
2005,09,21,08,48,11.80
2005,09,21,08,49,11.90
2005,09,21,08,50,12.00
2005,09,21,08,51,12.10
2005,09,21,08,52,12.20
2005,09,21,08,53,12.30
2005,09,21,08,54,12.40
2005,09,21,08,55,12.50
2005,09,21,08,56,12.50
2005,09,21,08,57,12.60
2005,09,21,08,58,12.70
2005,09,21,08,59,12.80
2005,09,21,09,00,12.80
2005,09,21,09,01,12.80
2005,09,21,09,02,12.90
2005,09,21,09,03,12.90
2005,09,21,09,04,12.90
2005,09,21,09,05,12.90
2005,09,21,09,06,13.00
2005,09,21,09,07,13.10
2005,09,21,09,08,13.10
2005,09,21,09,09,13.20
2005,09,21,09,10,13.20
2005,09,21,09,11,13.20
2005,09,21,09,12,13.30
2005,09,21,09,13,13.30
2005,09,21,09,14,13.30
2005,09,21,09,15,13.40
2005,09,21,09,16,13.40
2005,09,21,09,17,13.40
2005,09,21,09,18,13.40
2005,09,21,09,19,13.40
2005,09,21,09,20,13.40
2005,09,21,09,21,13.50
2005,09,21,09,22,13.50
2005,09,21,09,23,13.40
2005,09,21,09,24,13.50
2005,09,21,09,25,13.50
2005,09,21,09,26,13.50
2005,09,21,09,27,13.60
2005,09,21,09,28,13.60
2005,09,21,09,29,13.70
2005,09,21,09,30,13.70
2005,09,21,09,31,13.70
2005,09,21,09,32,13.70
2005,09,21,09,33,13.70
2005,09,21,09,34,13.60
2005,09,21,09,35,13.70
2005,09,21,09,36,13.70
2005,09,21,09,37,13.70
2005,09,21,09,38,13.80
2005,09,21,09,39,13.80
2005,09,21,09,40,13.90
2005,09,21,09,41,14.00
2005,09,21,09,42,14.00
2005,09,21,09,43,14.00
2005,09,21,09,44,14.00
2005,09,21,09,45,14.10
2005,09,21,09,46,14.10
2005,09,21,09,47,14.10
2005,09,21,09,48,14.00
2005,09,21,09,49,14.00
2005,09,21,09,50,14.10
2005,09,21,09,51,14.20
2005,09,21,09,52,14.30
2005,09,21,09,53,14.40
2005,09,21,09,54,14.50
2005,09,21,09,55,14.50
2005,09,21,09,56,14.50
2005,09,21,09,57,14.40
2005,09,21,09,58,14.30
2005,09,21,09,59,14.20
2005,09,21,10,00,14.20
2005,09,21,10,01,14.40
2005,09,21,10,02,14.30
2005,09,21,10,03,14.30
2005,09,21,10,04,14.20
2005,09,21,10,05,14.20
2005,09,21,10,06,14.10
2005,09,21,10,07,14.20
2005,09,21,10,08,14.20
2005,09,21,10,09,14.20
2005,09,21,10,10,14.20
2005,09,21,10,11,14.20
2005,09,21,10,12,14.10
2005,09,21,10,13,14.10
2005,09,21,10,14,14.10
2005,09,21,10,15,14.10
2005,09,21,10,16,14.10
2005,09,21,10,17,14.10
2005,09,21,10,18,14.10
2005,09,21,10,19,14.10
2005,09,21,10,20,14.30
2005,09,21,10,21,14.50
2005,09,21,10,22,14.60
2005,09,21,10,23,14.60
2005,09,21,10,24,14.60
2005,09,21,10,25,14.70
2005,09,21,10,26,14.80
2005,09,21,10,27,14.80
2005,09,21,10,28,14.80
2005,09,21,10,29,14.80
2005,09,21,10,30,14.80
2005,09,21,10,31,14.80
2005,09,21,10,32,14.80
2005,09,21,10,33,14.90
2005,09,21,10,34,14.80
2005,09,21,10,35,14.80
2005,09,21,10,36,14.80
2005,09,21,10,37,14.80
2005,09,21,10,38,14.80
2005,09,21,10,39,14.80
2005,09,21,10,40,14.80
2005,09,21,10,41,14.80
2005,09,21,10,42,14.90
2005,09,21,10,43,15.00
2005,09,21,10,44,15.10
2005,09,21,10,45,15.10
2005,09,21,10,46,15.10
2005,09,21,10,47,15.10
2005,09,21,10,48,15.20
2005,09,21,10,49,15.20
2005,09,21,10,50,15.20
2005,09,21,10,51,15.20
2005,09,21,10,52,15.30
2005,09,21,10,53,15.30
2005,09,21,10,54,15.30
2005,09,21,10,55,15.40
2005,09,21,10,56,15.60
2005,09,21,10,57,15.70
2005,09,21,10,58,15.80
2005,09,21,10,59,15.90
2005,09,21,11,00,15.90
2005,09,21,11,01,15.90
2005,09,21,11,02,15.80
2005,09,21,11,03,15.70
2005,09,21,11,04,15.70
2005,09,21,11,05,15.70
2005,09,21,11,06,15.80
2005,09,21,11,07,15.90
2005,09,21,11,08,16.10
2005,09,21,11,09,16.20
2005,09,21,11,10,16.20
2005,09,21,11,11,16.10
2005,09,21,11,12,15.90
2005,09,21,11,13,15.90
2005,09,21,11,14,15.90
2005,09,21,11,15,15.90
2005,09,21,11,16,15.90
2005,09,21,11,17,15.90
2005,09,21,11,18,15.90
2005,09,21,11,19,16.00
2005,09,21,11,20,16.00
2005,09,21,11,21,15.90
2005,09,21,11,22,15.80
2005,09,21,11,23,15.80
2005,09,21,11,24,15.80
2005,09,21,11,25,15.80
2005,09,21,11,26,15.90
2005,09,21,11,27,16.00
2005,09,21,11,28,16.10
2005,09,21,11,29,16.00
2005,09,21,11,30,15.90
2005,09,21,11,31,15.90
2005,09,21,11,32,16.00
2005,09,21,11,33,16.10
2005,09,21,11,34,16.10
2005,09,21,11,35,16.10
2005,09,21,11,36,16.10
2005,09,21,11,37,16.10
2005,09,21,11,38,16.10
2005,09,21,11,39,16.10
2005,09,21,11,40,16.20
2005,09,21,11,41,16.30
2005,09,21,11,42,16.30
2005,09,21,11,43,16.40
2005,09,21,11,44,16.40
2005,09,21,11,45,16.40
2005,09,21,11,46,16.40
2005,09,21,11,47,16.40
2005,09,21,11,48,16.30
2005,09,21,11,49,16.30
2005,09,21,11,50,16.20
2005,09,21,11,51,16.10
2005,09,21,11,52,16.10
2005,09,21,11,53,15.90
2005,09,21,11,54,15.80
2005,09,21,11,55,15.80
2005,09,21,11,56,15.80
2005,09,21,11,57,15.80
2005,09,21,11,58,15.80
2005,09,21,11,59,15.80
2005,09,21,12,00,15.80
2005,09,21,12,01,15.80
2005,09,21,12,02,15.80
2005,09,21,12,03,15.90
2005,09,21,12,04,16.00
2005,09,21,12,05,16.10
2005,09,21,12,06,16.10
2005,09,21,12,07,16.10
2005,09,21,12,08,16.10
2005,09,21,12,09,16.30
2005,09,21,12,10,16.30
2005,09,21,12,11,16.30
2005,09,21,12,12,16.20
2005,09,21,12,13,16.20
2005,09,21,12,14,16.20
2005,09,21,12,15,16.30
2005,09,21,12,16,16.40
2005,09,21,12,17,16.40
2005,09,21,12,18,16.30
2005,09,21,12,19,16.30
2005,09,21,12,20,16.30
2005,09,21,12,21,16.40
2005,09,21,12,22,16.30
2005,09,21,12,23,16.40
2005,09,21,12,24,16.40
2005,09,21,12,25,16.30
2005,09,21,12,26,16.30
2005,09,21,12,27,16.40
2005,09,21,12,28,16.40
2005,09,21,12,29,16.30
2005,09,21,12,30,16.20
2005,09,21,12,31,16.10
2005,09,21,12,32,16.20
2005,09,21,12,33,16.20
2005,09,21,12,34,16.30
2005,09,21,12,35,16.40
2005,09,21,12,36,16.40
2005,09,21,12,37,16.50
2005,09,21,12,38,16.60
2005,09,21,12,39,16.70
2005,09,21,12,40,16.90
2005,09,21,12,41,17.00
2005,09,21,12,42,17.10
2005,09,21,12,43,17.00
2005,09,21,12,44,17.00
2005,09,21,12,45,17.00
2005,09,21,12,46,17.10
2005,09,21,12,47,17.00
2005,09,21,12,48,17.00
2005,09,21,12,49,17.10
2005,09,21,12,50,17.00
2005,09,21,12,51,17.00
2005,09,21,12,52,16.80
2005,09,21,12,53,16.70
2005,09,21,12,54,16.70
2005,09,21,12,55,17.00
2005,09,21,12,56,17.10
2005,09,21,12,57,17.00
2005,09,21,12,58,17.00
2005,09,21,12,59,17.10
2005,09,21,13,00,17.10
2005,09,21,13,01,17.10
2005,09,21,13,02,17.10
2005,09,21,13,03,17.10
2005,09,21,13,04,17.00
2005,09,21,13,05,17.00
2005,09,21,13,06,16.90
2005,09,21,13,07,17.00
2005,09,21,13,08,17.10
2005,09,21,13,09,17.30
2005,09,21,13,10,17.20
2005,09,21,13,11,17.10
2005,09,21,13,12,17.00
2005,09,21,13,13,16.90
2005,09,21,13,14,16.90
2005,09,21,13,15,16.80
2005,09,21,13,16,16.70
2005,09,21,13,17,16.70
2005,09,21,13,18,16.70
2005,09,21,13,19,16.70
2005,09,21,13,20,16.80
2005,09,21,13,21,16.90
2005,09,21,13,22,17.00
2005,09,21,13,23,17.10
2005,09,21,13,24,17.30
2005,09,21,13,25,17.30
2005,09,21,13,26,17.20
2005,09,21,13,27,17.30
2005,09,21,13,28,17.40
2005,09,21,13,29,17.50
2005,09,21,13,30,17.50
2005,09,21,13,31,17.30
2005,09,21,13,32,17.20
2005,09,21,13,33,17.10
2005,09,21,13,34,17.10
2005,09,21,13,35,17.10
2005,09,21,13,36,17.20
2005,09,21,13,37,17.20
2005,09,21,13,38,17.30
2005,09,21,13,39,17.20
2005,09,21,13,40,17.20
2005,09,21,13,41,17.20
2005,09,21,13,42,17.20
2005,09,21,13,43,17.30
2005,09,21,13,44,17.40
2005,09,21,13,45,17.60
2005,09,21,13,46,17.50
2005,09,21,13,47,17.50
2005,09,21,13,48,17.30
2005,09,21,13,49,17.20
2005,09,21,13,50,17.10
2005,09,21,13,51,17.00
2005,09,21,13,52,17.10
2005,09,21,13,53,17.10
2005,09,21,13,54,17.20
2005,09,21,13,55,17.30
2005,09,21,13,56,17.40
2005,09,21,13,57,17.50
2005,09,21,13,58,17.50
2005,09,21,13,59,17.50
2005,09,21,14,00,17.60
2005,09,21,14,01,17.60
2005,09,21,14,02,17.40
2005,09,21,14,03,17.40
2005,09,21,14,04,17.30
2005,09,21,14,05,17.20
2005,09,21,14,06,17.20
2005,09,21,14,07,17.20
2005,09,21,14,08,17.20
2005,09,21,14,09,17.10
2005,09,21,14,10,16.80
2005,09,21,14,11,16.60
2005,09,21,14,12,16.40
2005,09,21,14,13,16.40
2005,09,21,14,14,16.40
2005,09,21,14,15,16.40
2005,09,21,14,16,16.50
2005,09,21,14,17,16.60
2005,09,21,14,18,16.70
2005,09,21,14,19,16.70
2005,09,21,14,20,16.80
2005,09,21,14,21,16.70
2005,09,21,14,22,16.70
2005,09,21,14,23,16.50
2005,09,21,14,24,16.30
2005,09,21,14,25,16.20
2005,09,21,14,26,16.10
2005,09,21,14,27,16.10
2005,09,21,14,28,15.90
2005,09,21,14,29,15.80
2005,09,21,14,30,15.80
2005,09,21,14,31,15.90
2005,09,21,14,32,16.00
2005,09,21,14,33,16.10
2005,09,21,14,34,16.20
2005,09,21,14,35,16.10
2005,09,21,14,36,16.10
2005,09,21,14,37,16.10
2005,09,21,14,38,16.10
2005,09,21,14,39,16.10
2005,09,21,14,40,16.10
2005,09,21,14,41,16.10
2005,09,21,14,42,16.10
2005,09,21,14,43,16.20
2005,09,21,14,44,16.20
2005,09,21,14,45,16.40
2005,09,21,14,46,16.40
2005,09,21,14,47,16.40
2005,09,21,14,48,16.40
2005,09,21,14,49,16.40
2005,09,21,14,50,16.20
2005,09,21,14,51,16.10
2005,09,21,14,52,16.00
2005,09,21,14,53,15.80
2005,09,21,14,54,15.80
2005,09,21,14,55,15.70
2005,09,21,14,56,15.50
2005,09,21,14,57,15.40
2005,09,21,14,58,15.30
2005,09,21,14,59,15.40
2005,09,21,15,00,15.40
2005,09,21,15,01,15.40
2005,09,21,15,02,15.30
2005,09,21,15,03,15.30
2005,09,21,15,04,15.20
2005,09,21,15,05,15.10
2005,09,21,15,06,15.00
2005,09,21,15,07,15.10
2005,09,21,15,08,15.10
2005,09,21,15,09,15.20
2005,09,21,15,10,15.30
2005,09,21,15,11,15.30
2005,09,21,15,12,15.30
2005,09,21,15,13,15.40
2005,09,21,15,14,15.40
2005,09,21,15,15,15.40
2005,09,21,15,16,15.40
2005,09,21,15,17,15.40
2005,09,21,15,18,15.40
2005,09,21,15,19,15.40
2005,09,21,15,20,15.40
2005,09,21,15,21,15.50
2005,09,21,15,22,15.50
2005,09,21,15,23,15.60
2005,09,21,15,24,15.70
2005,09,21,15,25,15.60
2005,09,21,15,26,15.60
2005,09,21,15,27,15.60
2005,09,21,15,28,15.60
2005,09,21,15,29,15.60
2005,09,21,15,30,15.50
2005,09,21,15,31,15.50
2005,09,21,15,32,15.50
2005,09,21,15,33,15.60
2005,09,21,15,34,15.70
2005,09,21,15,35,15.70
2005,09,21,15,36,15.80
2005,09,21,15,37,16.00
2005,09,21,15,38,16.10
2005,09,21,15,39,16.10
2005,09,21,15,40,16.10
2005,09,21,15,41,16.20
2005,09,21,15,42,16.20
2005,09,21,15,43,16.20
2005,09,21,15,44,16.20
2005,09,21,15,45,16.20
2005,09,21,15,46,16.20
2005,09,21,15,47,16.20
2005,09,21,15,48,16.30
2005,09,21,15,49,16.30
2005,09,21,15,50,16.30
2005,09,21,15,51,16.30
2005,09,21,15,52,16.30
2005,09,21,15,53,16.30
2005,09,21,15,54,16.30
2005,09,21,15,55,16.40
2005,09,21,15,56,16.40
2005,09,21,15,57,16.50
2005,09,21,15,58,16.60
2005,09,21,15,59,16.60
2005,09,21,16,00,16.70
2005,09,21,16,01,16.60
2005,09,21,16,02,16.60
2005,09,21,16,03,16.60
2005,09,21,16,04,16.60
2005,09,21,16,05,16.70
2005,09,21,16,06,16.70
2005,09,21,16,07,16.70
2005,09,21,16,08,16.80
2005,09,21,16,09,16.90
2005,09,21,16,10,16.90
2005,09,21,16,11,17.00
2005,09,21,16,12,17.00
2005,09,21,16,13,16.90
2005,09,21,16,14,16.90
2005,09,21,16,15,16.80
2005,09,21,16,16,16.80
2005,09,21,16,17,16.80
2005,09,21,16,18,16.70
2005,09,21,16,19,16.80
2005,09,21,16,20,16.80
2005,09,21,16,21,16.80
2005,09,21,16,22,16.80
2005,09,21,16,23,16.80
2005,09,21,16,24,16.90
2005,09,21,16,25,16.90
2005,09,21,16,26,16.90
2005,09,21,16,27,16.90
2005,09,21,16,28,16.90
2005,09,21,16,29,16.90
2005,09,21,16,30,17.00
2005,09,21,16,31,17.10
2005,09,21,16,32,17.20
2005,09,21,16,33,17.30
2005,09,21,16,34,17.30
2005,09,21,16,35,17.50
2005,09,21,16,36,17.50
2005,09,21,16,37,17.60
2005,09,21,16,38,17.70
2005,09,21,16,39,17.70
2005,09,21,16,40,17.70
2005,09,21,16,41,17.70
2005,09,21,16,42,17.60
2005,09,21,16,43,17.50
2005,09,21,16,44,17.40
2005,09,21,16,45,17.30
2005,09,21,16,46,17.20
2005,09,21,16,47,17.00
2005,09,21,16,48,17.00
2005,09,21,16,49,16.90
2005,09,21,16,50,16.80
2005,09,21,16,51,16.70
2005,09,21,16,52,16.70
2005,09,21,16,53,16.60
2005,09,21,16,54,16.40
2005,09,21,16,55,16.40
2005,09,21,16,56,16.50
2005,09,21,16,57,16.60
2005,09,21,16,58,16.60
2005,09,21,16,59,16.60
2005,09,21,17,00,16.70
2005,09,21,17,01,16.70
2005,09,21,17,02,16.80
2005,09,21,17,03,16.90
2005,09,21,17,04,17.00
2005,09,21,17,05,17.00
2005,09,21,17,06,17.00
2005,09,21,17,07,16.90
2005,09,21,17,08,16.90
2005,09,21,17,09,16.90
2005,09,21,17,10,16.90
2005,09,21,17,11,16.90
2005,09,21,17,12,16.90
2005,09,21,17,13,16.90
2005,09,21,17,14,16.90
2005,09,21,17,15,17.00
2005,09,21,17,16,17.00
2005,09,21,17,17,17.00
2005,09,21,17,18,17.10
2005,09,21,17,19,17.10
2005,09,21,17,20,17.10
2005,09,21,17,21,17.10
2005,09,21,17,22,17.00
2005,09,21,17,23,16.90
2005,09,21,17,24,16.90
2005,09,21,17,25,16.80
2005,09,21,17,26,16.70
2005,09,21,17,27,16.60
2005,09,21,17,28,16.50
2005,09,21,17,29,16.40
2005,09,21,17,30,16.30
2005,09,21,17,31,16.30
2005,09,21,17,32,16.20
2005,09,21,17,33,16.20
2005,09,21,17,34,16.20
2005,09,21,17,35,16.30
2005,09,21,17,36,16.20
2005,09,21,17,37,16.20
2005,09,21,17,38,16.10
2005,09,21,17,39,16.10
2005,09,21,17,40,16.10
2005,09,21,17,41,16.10